Location: *
(60.1759°S, 155.0663°W)
Time: 09:53:27
(UTC+00:00)

Cosmos 1315 Rocket - Pass Details

Date: 17 September 2019
Orbit: 529 x 570 km, 81.2° (Epoch: 22 October)

Event Time Altitude Azimuth Distance (km) Brightness Sun altitude
Rises 13:45:07 0° 200° (SSW) 2,737 6.5 -19.6°
Reaches altitude 10° 13:47:20 10° 205° (SSW) 1,842 5.6 -19.4°
Maximum altitude 13:51:14 47° 279° (W) 741 3.0 -19.0°
Enters shadow 13:51:16 47° 280° (W) 741 3.0 -19.0°
